Location: Buffign�court
(47.8126°N, 6.0176°E)
Time: 01:31:05
(UTC+00:00)

USA 215 - Pass Details

Date: 16 June 2021
Orbit: 1100 x 1107 km, 123.0° (Epoch: 22 June)

Event Time Altitude Azimuth Distance (km) Brightness Sun altitude
Rises 21:35:52 0° 55° (NE) 3,923 6.3 -13.8°
Reaches altitude 10° 21:38:28 10° 61° (ENE) 2,963 5.5 -14.0°
Maximum altitude 21:44:45 47° 134° (SE) 1,418 3.5 -14.5°
Drops below altitude 10° 21:50:59 10° 207° (SSW) 2,951 5.2 -14.9°
Sets 21:53:35 0° 213° (SSW) 3,906 5.8 -15.1°
